Fun-/Clanwars

Sortieren:  1 2 3 4 5 ...  »

Datum: Spiel: Gegner: Matchtyp/Liga: Ergebnis: Infos:
16.06.14 vs NFO Clanwar 5on5 295:401 Einzelheiten (0)
15.06.14 vs GSC Clanwar 5on5 338:358 Einzelheiten (0)
12.06.14 vs KJ Clanwar 3on3 133:131 Einzelheiten (0)
11.06.14 vs O Clanwar 4on4 251:225 Einzelheiten (0)
11.06.14 vs HE Clanwar 3on3 141:112 Einzelheiten (0)
10.06.14 vs T Clanwar 5on5 301:387 Einzelheiten (0)
05.06.14 vs W-K Clanwar 5on5 307:375 Einzelheiten (0)
05.06.14 vs GSC Clanwar 3on3 122:142 Einzelheiten (0)
04.06.14 vs AR Clanwar 5on5 241:455 Einzelheiten (0)
03.06.14 vs GSC Clanwar 5on5 372:324 Einzelheiten (0)
02.06.14 vs NFO Clanwar 5on5 284:412 Einzelheiten (0)
01.06.14 vs WEC Clanwar 6on6 320:654 Einzelheiten (0)
12.02.14 vs uk Clanwar 5on5 307:425 Einzelheiten (0)
20.05.13 vs EK IL 5on5 405:295 Einzelheiten (0)
05.05.13 vs MP IL 5on5 279:445 Einzelheiten (0)
01.04.13 vs CS IL 5on5 385:347 Einzelheiten (0)
24.03.13 vs L7 IL 5on5 341:223 Einzelheiten (0)
17.03.13 vs W-K IL 5on5 383:349 Einzelheiten (0)
10.03.13 vs MKR IL 5on5 365:367 Einzelheiten (0)
03.03.13 vs LF IL 5on5 378:354 Einzelheiten (0)
24.02.13 vs CS IL 5on5 373:352 Einzelheiten (0)
24.02.13 vs L7 IL 5on5 301:431 Einzelheiten (0)
10.02.13 vs W-K IL 5on5 327:406 Einzelheiten (0)
07.02.13 vs wZo Clanwar 6on6 469:391 Einzelheiten (0)
13.01.13 vs GP7 IL 5on5 348:384 Einzelheiten (0)
06.01.13 vs iD IL 5on5 380:352 Einzelheiten (0)
23.12.12 vs Ct IL 5on5 352:360 Einzelheiten (0)
09.12.12 vs GP7 IL 5on5 373:359 Einzelheiten (0)
25.11.12 vs HD IL 5on5 319:413 Einzelheiten (0)
18.11.12 vs Ct IL 5on5 286:431 Einzelheiten (0)
11.11.12 vs L7 IL 5on5 339:393 Einzelheiten (0)
30.09.12 vs At IL 5on5 306:426 Einzelheiten (0)
24.09.12 vs NGW Clanwar 3on3 187:233 Einzelheiten (0)
23.09.12 vs GP7 IL 5on5 355:357 Einzelheiten (0)
16.09.12 vs !C IL 5on5 386:331 Einzelheiten (0)
09.09.12 vs SX IL 5on5 423:319 Einzelheiten (0)
05.09.12 vs ESP Clanwar 5on5 393:339 Einzelheiten (0)
02.09.12 vs WEC 253:310 Einzelheiten (0)
02.09.12 vs W-K IL 5on5 393:339 Einzelheiten (0)
26.08.12 vs AS IL 5on5 388:326 Einzelheiten (0)
25.08.12 vs NFO Clanwar 3on3 218:201 Einzelheiten (0)
21.08.12 vs NFO Clanwar 5on5 281:451 Einzelheiten (0)
19.08.12 vs GP7 IL 5on5 327:405 Einzelheiten (0)
17.08.12 vs wZo Clanwar 3on3 219:201 Einzelheiten (0)
12.08.12 vs !C IL 5on5 354:378 Einzelheiten (0)
01.08.12 vs GP7 Clanwar 4on4 334:170 Einzelheiten (0)
22.07.12 vs Nw IL 5on5 369:363 Einzelheiten (0)
11.07.12 vs I7 Clanwar 5on5 370:362 Einzelheiten (0)
09.07.12 vs ST Clanwar 5on5 372:360 Einzelheiten (0)
08.07.12 vs D'OEUF IL 5on5 299:365 Einzelheiten (0)
08.07.12 vs !C Clanwar 5on5 430:302 Einzelheiten (0)
30.06.12 vs X Clanwar 4on4 265:275 Einzelheiten (0)
30.06.12 vs !C Clanwar 4on4 303:261 Einzelheiten (0)
24.06.12 vs W-K Clanwar 5on5 432:300 Einzelheiten (0)
21.06.12 vs NFO Random Clanwar allá Terror 98:42 Einzelheiten (0)
19.06.12 vs CM Clanwar 4on4 291:273 Einzelheiten (0)
18.06.12 vs Fw IL 258:354 Einzelheiten (0)
03.06.12 vs beu Clanwar 5on5 218:346 Einzelheiten (0)
03.06.12 vs !C Clanwar 5on5 399:333 Einzelheiten (0)
03.06.12 vs RS Custom Track Clanwar 3on3 168:252 Einzelheiten (0)

Letzte Fun-/Clanwars

mk8

16.06.2014

vs. NFerno

295:401

mk8

15.06.2014

vs. German Shooter Clan

338:358

mk8

12.06.2014

vs. Kinetic Jackhammer

133:131

mk8

11.06.2014

vs. Oracles

251:225

mk8

11.06.2014

vs. HE

141:112

Letzte Posts

Fight us

Fight us

Fight us
Letzter Beitrag: Marschl
Forum: Fight us
07.06.2015 - 14:09
0

Join us

Join us

Join us
Letzter Beitrag: Marschl
Forum: Join us
07.06.2015 - 14:06
0

Assoziationskette

Forenspiele

Assoziationskette
Letzter Beitrag: Marschl
Forum: Forenspiele
07.06.2015 - 13:58
0

Events

Splatoon Release
Nintendo @ E3 2015

Partner

Gaming-Elite Team
Gaming-Elite Team

Verlinke uns
Verlinke uns